User: anonymous   Login
Location: Unspecified
(0.0000°N, 0.0000°E)
Time: 03:02:47
(UTC+01:00)
Language:

Cosmos 1315 Rocket - Orbit

View from above orbital plane
View from above orbital plane
View from above satellite
View from above satellite

Ground track
Ground track

The orbit data is extracted from the following two-line orbital elements,

1 12904U 81103B   18050.57706370 +.00000851 +00000-0 +57230-4 0  9993
2 12904 081.1793 352.9934 0028086 333.6127 026.3663 15.05449905529825
Epoch (UTC): 19 February 2018 13:50:58
Eccentricity: 0.0028086
inclination: 81.1793°
perigee height: 530 km
apogee height: 569 km
right ascension of ascending node: 352.9934°
argument of perigee: 333.6127°
revolutions per day: 15.05449905
mean anomaly at epoch: 26.3663°
orbit number at epoch: 52982

The dashed part of the orbit path shows where the satellite is in the earth's shadow,  

DLR